This is the latest recevied weather packets stored in our database for station/object W6TKD-13. If no packets are shown the sender has not sent any weather packets the latest 10 day(s).
| Time | Temp. | Humidity | Pressure | Rain* | Wind** | Luminosity | Snow |
|---|---|---|---|---|---|---|---|
| 1777853920 | 17.78° C | 52% | 1012 hPa | 0 mm | - | - | - |
| 1777853254 | 18.33° C | 53% | 1011.9 hPa | 0 mm | - | - | - |
| 1777852589 | 17.78° C | 53% | 1012 hPa | 0 mm | - | - | - |
| 1777851919 | 17.78° C | 53% | 1011.9 hPa | 0 mm | - | - | - |
| 1777850586 | 16.67° C | 53% | 1012.4 hPa | 0 mm | - | - | - |
| 1777849919 | 16.67° C | 53% | 1012.5 hPa | 0 mm | - | - | - |
| 1777849251 | 16.67° C | 53% | 1012.6 hPa | 0 mm | - | - | - |
| 1777847918 | 16.67° C | 53% | 1012.4 hPa | 0 mm | - | - | - |
| 1777847250 | 16.67° C | 53% | 1012.4 hPa | 0 mm | - | - | - |
| 1777846584 | 16.67° C | 52% | 1012.4 hPa | 0 mm | - | - | - |
| 1777845916 | 16.67° C | 52% | 1012.5 hPa | 0 mm | - | - | - |
| 1777845249 | 16.67° C | 52% | 1012.5 hPa | 0 mm | - | - | - |
| 1777844583 | 17.22° C | 52% | 1012.5 hPa | 0 mm | - | - | - |
| 1777843919 | 17.22° C | 51% | 1012.6 hPa | 0 mm | - | - | - |
| 1777843249 | 17.78° C | 51% | 1012.5 hPa | 0 mm | - | - | - |
| 1777841915 | 18.89° C | 51% | 1012.6 hPa | 0 mm | - | - | - |
| 1777841248 | 19.44° C | 50% | 1012.4 hPa | 0 mm | - | - | - |
| 1777840580 | 20° C | 50% | 1012.5 hPa | 0 mm | - | - | - |
| 1777839913 | 20.56° C | 50% | 1012.2 hPa | 0 mm | - | - | - |
| 1777838581 | 21.67° C | 50% | 1012.3 hPa | 0 mm | - | - | - |
| 1777837914 | 22.22° C | 50% | 1012.2 hPa | 0 mm | - | - | - |
| 1777837245 | 21.11° C | 51% | 1012.3 hPa | 0 mm | - | - | - |
| 1777836578 | 20.56° C | 51% | 1012.2 hPa | 0 mm | - | - | - |
| 1777835911 | 20° C | 51% | 1012.4 hPa | 0 mm | - | - | - |
| 1777835245 | 20° C | 51% | 1012.4 hPa | 0 mm | - | - | - |
* Rain since midnight (hover to see other rain measurements)
** Current wind speed in m/s (hover to see current wind gust speed)